Dewpoint
21 22 22 22 22 23 22 22 22 23 23 23 22 22 22 22 22 22 22 22 23 24 24 24 24 25 25 26 26 27 29 29 29 29 29 29 29 29 32 34 35 38 38 39 42 46 51 56 59 60 61 62 62 62 62 61 60 62 63 63 63 65 64 63 61 62 62 62 63 64 63 63 62 62 62 63 63 62 61 62 63 62 62 60 58 55 52 50 48 48 47 47 47 47 45 43 43 44 44 42 41 40 39
21 21 21 22 22 22 23 22 22 22 23 23 23 22 22 21 21 21 22 22 23 24 24 24 23 24 24 25 25 27 27 28 28 29 28 27 27 27 29 31 33 34 34 36 38 40 44 49 54 57 60 60 59 57 61 62 61 61 62 63 63 64 64 64 64 63 62 62 62 64 63 63 62 62 62 62 62 62 61 62 62 62 62 60 57 55 52 50 49 48 47 47 47 47 47 45 43 42 42 42 41 40 39
20 21 21 21 22 22 23 23 22 22 23 24 23 23 23 22 21 22 22 22 22 24 24 24 23 23 24 24 24 25 26 27 27 29 28 27 26 26 27 29 30 32 33 34 35 37 39 44 49 54 58 60 59 57 59 60 61 61 61 62 63 63 63 63 64 64 63 62 63 63 63 63 63 62 62 62 62 62 62 62 62 62 62 61 59 55 54 52 50 48 48 47 47 47 47 45 43 42 42 42 41 40 39
20 20 20 21 22 22 23 23 24 26 24 24 23 24 23 22 22 22 22 22 22 23 24 24 23 23 23 23 24 24 26 26 26 27 26 26 27 28 28 29 30 31 32 32 33 33 35 37 39 42 49 56 60 59 60 60 61 60 62 63 63 61 60 60 61 64 63 64 64 64 64 64 63 62 62 62 63 63 62 62 62 62 62 61 61 60 58 55 51 48 47 47 47 47 46 45 44 43 42 42 42 40 39
20 20 20 21 22 22 23 23 23 23 23 23 23 23 23 22 22 22 22 22 22 22 23 24 23 23 23 23 23 24 26 27 27 26 25 26 27 28 29 29 29 30 30 30 31 33 35 37 39 41 43 47 53 60 60 61 61 62 63 62 62 61 61 61 62 62 63 63 63 64 64 64 64 64 63 63 63 62 61 61 61 61 61 61 60 60 60 57 53 50 48 47 47 47 45 45 44 44 44 43 42 40 40
20 20 20 21 21 21 21 21 21 21 21 21 22 24 23 22 21 21 21 21 22 22 23 24 24 23 23 24 24 24 26 29 29 24 24 25 26 27 28 28 29 29 29 29 30 31 33 37 40 42 43 46 50 56 59 60 61 62 62 61 61 60 60 60 61 61 62 62 63 62 63 63 64 64 64 63 62 62 61 61 61 61 60 60 60 60 60 58 55 51 49 47 47 47 45 44 44 44 44 43 42 41 41
19 20 20 20 20 20 20 20 20 20 18 20 21 22 23 22 20 20 20 21 22 23 24 24 24 23 24 24 24 25 26 29 31 28 26 26 28 29 28 28 28 28 28 29 29 30 33 36 39 41 42 45 50 58 60 61 60 59 60 60 60 59 59 59 60 61 61 62 62 62 62 62 62 63 63 63 62 62 61 61 60 60 60 60 60 60 60 58 56 52 50 49 47 47 46 44 43 43 43 43 43 42 42
19 19 18 19 19 19 20 20 21 20 18 19 20 20 20 19 18 19 20 20 21 22 23 24 24 24 24 24 24 25 27 29 29 27 26 28 29 30 28 28 28 28 28 29 30 32 33 35 38 40 40 41 44 50 52 54 56 59 63 62 60 59 59 59 59 60 60 61 61 62 62 62 62 61 61 61 62 61 61 61 61 61 61 60 60 60 60 59 57 53 51 49 48 47 47 46 45 43 43 43 43 43 42
18 17 17 17 18 19 20 21 22 20 18 18 19 19 19 18 18 18 20 20 20 22 22 23 24 24 23 24 24 24 25 26 26 26 27 28 29 27 27 28 28 28 29 29 30 31 31 33 35 37 37 38 38 40 40 43 48 57 59 60 60 60 58 58 58 59 60 60 60 62 62 61 61 61 61 60 61 61 62 62 62 62 61 60 60 59 59 60 60 57 54 52 50 48 47 46 45 44 43 43 43 43 42
18 18 17 17 18 18 19 20 21 20 18 18 20 19 19 17 16 17 19 20 20 20 21 22 23 23 23 23 23 24 24 24 25 25 26 27 28 26 27 27 28 28 28 29 29 29 29 30 32 32 32 32 33 35 37 39 42 44 47 52 57 58 58 57 58 59 59 59 60 60 60 60 61 60 60 60 60 61 62 62 62 61 61 60 60 60 60 60 60 59 59 56 53 50 48 47 46 44 44 43 43 42 42
18 18 17 17 17 17 17 18 19 20 20 20 20 20 18 17 16 16 18 19 20 20 21 22 23 22 22 22 23 22 22 23 24 26 27 27 26 26 27 27 27 27 27 28 28 28 28 29 29 29 29 29 29 29 30 33 36 39 40 46 53 58 59 59 59 59 59 59 59 59 60 60 60 60 60 60 60 61 61 62 61 61 60 60 60 60 60 59 59 59 59 58 56 52 50 48 47 46 45 44 43 42 42
17 17 17 16 16 15 16 17 19 20 21 21 20 20 18 17 16 16 17 19 20 20 21 22 22 22 23 23 22 21 21 23 24 26 27 26 25 26 26 27 27 27 27 28 28 28 28 28 29 29 29 29 29 28 29 31 33 34 37 40 44 49 53 56 57 58 59 59 59 59 59 59 60 60 60 60 60 61 61 61 61 61 60 60 60 59 59 59 59 59 59 59 58 56 52 49 47 46 46 45 44 42 42
16 16 17 16 16 15 15 16 18 20 21 21 20 17 17 15 14 12 13 16 20 20 21 22 22 23 25 24 23 20 21 23 24 25 26 26 25 26 26 27 27 27 27 28 27 27 27 28 29 29 29 29 29 29 29 29 29 30 33 36 40 43 47 51 55 56 58 58 59 59 59 59 60 60 60 60 60 60 61 61 61 60 60 60 59 59 59 59 59 59 59 59 59 58 54 51 49 47 46 45 44 43 42
16 16 16 16 16 15 15 16 17 19 21 21 19 15 15 13 12 11 11 13 16 19 20 22 22 22 24 24 24 21 23 24 25 25 28 28 27 27 27 27 27 26 28 28 27 27 28 28 28 28 29 30 30 29 29 29 28 28 30 33 36 39 44 49 54 56 57 58 59 59 59 59 59 59 60 60 60 60 60 61 60 60 60 60 59 59 59 59 59 59 59 59 59 60 58 55 52 49 47 46 45 44 42
16 16 16 16 16 16 15 15 16 19 20 19 17 15 14 13 12 12 11 12 13 15 20 22 21 20 20 21 22 20 23 25 27 25 27 29 29 29 29 28 27 27 28 28 28 29 29 29 29 30 32 33 32 29 29 29 28 28 29 30 32 35 41 49 55 57 57 58 59 60 59 59 59 59 60 60 60 60 60 60 60 60 60 59 59 59 59 59 59 59 59 59 59 59 59 57 54 50 48 47 46 46 44
15 16 15 15 16 16 15 15 16 18 19 17 15 14 15 14 13 12 12 12 12 14 19 21 20 18 17 17 18 18 20 24 27 24 26 29 31 31 30 29 29 28 28 28 29 31 32 32 30 30 31 31 31 29 29 29 29 29 29 29 31 32 37 47 56 59 57 57 58 59 59 59 59 59 60 60 60 60 60 60 60 60 60 60 59 59 59 59 59 59 59 59 59 58 58 56 53 50 49 48 47 46 45
14 15 15 15 15 16 16 16 16 16 17 16 14 14 16 15 13 12 12 12 12 13 17 20 19 16 15 16 16 17 19 21 23 24 24 26 27 29 29 29 29 29 30 30 30 31 31 31 30 30 29 29 29 29 29 29 29 29 29 30 30 31 33 42 53 59 58 57 57 58 59 59 59 59 60 60 61 61 61 60 60 60 60 60 60 60 59 59 59 59 58 58 58 58 57 56 54 52 52 50 48 47 45
13 14 15 15 15 16 15 15 15 15 16 16 15 14 15 15 13 13 12 12 13 14 17 19 18 16 15 15 16 16 18 20 22 23 24 24 25 27 28 28 28 29 31 32 31 31 31 31 30 30 29 29 29 30 30 30 29 29 30 30 31 31 32 36 43 55 58 58 58 59 59 59 59 60 59 60 60 61 61 61 60 60 60 59 59 59 60 60 60 59 58 58 58 57 58 57 56 56 55 53 51 48 45
14 15 15 15 15 15 15 14 13 14 15 16 16 15 15 15 14 13 12 12 13 15 17 18 18 16 15 15 15 15 18 20 21 23 24 24 24 26 27 27 28 30 31 32 32 32 31 31 31 31 31 31 31 31 31 30 30 30 30 31 32 33 34 34 37 44 51 55 57 58 58 58 58 58 58 59 60 60 60 60 60 59 59 58 58 58 59 59 59 60 59 59 58 58 58 58 57 57 56 55 52 48 46
13 14 14 15 15 15 15 14 13 12 14 15 16 16 16 15 14 14 13 13 14 15 17 19 18 16 15 15 15 15 18 19 20 21 23 24 24 25 26 27 29 30 31 32 32 33 32 31 32 32 33 33 33 33 32 32 32 31 32 33 33 34 35 36 37 38 41 44 48 52 55 56 57 57 58 59 59 59 59 59 59 59 59 58 58 58 58 58 59 59 60 59 59 59 58 58 58 57 57 56 54 50 48
12 13 13 13 14 15 14 13 13 12 14 15 16 16 16 16 16 15 13 13 14 16 18 18 17 15 15 14 14 15 16 17 18 19 20 22 23 24 25 27 29 30 31 32 33 33 33 33 33 33 34 35 35 35 35 35 34 34 34 35 35 35 36 37 38 38 38 39 40 43 47 52 55 56 57 58 58 59 59 59 59 59 58 58 58 57 57 58 58 58 59 59 59 59 58 58 58 57 57 56 56 53 50
12 12 12 12 13 13 13 13 13 13 15 15 16 17 17 17 17 15 14 14 15 17 18 17 16 15 15 15 14 14 15 16 16 18 19 20 20 22 23 26 28 29 31 31 32 33 33 34 34 35 35 35 36 36 37 37 38 37 37 36 36 35 36 37 38 38 38 39 39 40 42 46 50 52 55 57 57 58 58 58 58 58 58 58 58 57 57 57 57 57 58 58 58 58 58 58 57 57 57 57 56 55 52
11 11 12 12 13 14 14 13 14 14 15 16 17 17 18 18 18 16 15 15 15 17 17 17 15 15 15 15 15 14 15 15 15 17 17 18 20 21 23 26 29 30 31 32 33 34 36 36 36 36 35 35 35 36 37 38 38 39 38 38 38 38 38 38 38 38 38 38 39 40 41 43 46 48 51 54 56 57 58 58 58 57 58 58 58 58 57 57 57 57 57 57 57 57 57 57 57 57 57 57 57 56 53
12 12 12 13 14 15 14 14 14 14 16 17 18 19 20 20 19 18 17 16 16 17 17 17 16 15 15 15 14 14 13 14 15 17 17 18 20 22 24 27 30 31 32 33 35 36 36 37 37 37 37 36 36 36 36 37 38 38 39 39 39 39 39 38 38 38 38 38 38 40 41 42 44 45 47 50 53 56 56 57 57 57 57 57 57 57 57 57 57 57 57 57 57 57 57 57 57 57 57 57 57 57 55
12 12 13 13 14 14 13 13 13 14 17 18 18 19 20 20 19 18 17 17 17 18 18 17 16 15 15 15 14 13 13 14 15 17 17 18 20 22 24 28 31 33 32 34 36 37 37 36 36 36 37 37 37 38 38 38 38 38 38 38 38 39 38 39 39 39 39 39 40 41 41 42 42 42 43 46 49 52 54 55 56 56 56 56 56 56 57 57 57 57 57 57 56 56 56 57 57 57 57 57 57 57 56
13 13 13 13 13 12 12 12 13 14 15 16 18 19 20 20 19 18 17 17 17 18 18 17 16 15 15 15 14 13 13 14 15 17 18 20 21 23 26 29 31 32 32 33 35 36 35 35 35 35 36 37 37 37 37 38 38 38 38 38 38 38 38 38 39 39 40 40 41 41 40 41 41 41 42 44 47 51 53 54 54 54 54 54 55 55 55 56 56 56 56 56 56 56 56 56 57 57 57 57 56 56 56
13 13 13 12 12 12 11 12 13 14 15 18 21 22 21 20 19 18 17 17 18 18 18 17 16 15 15 15 14 14 14 15 16 18 20 22 24 28 31 33 33 33 32 33 35 35 35 34 34 34 34 34 35 36 36 37 38 38 38 38 38 39 39 39 39 39 40 41 41 41 41 41 42 42 42 43 46 49 51 53 53 53 53 53 53 54 54 54 55 55 56 56 56 56 56 56 56 56 56 56 56 56 56
13 13 12 12 12 12 11 12 12 12 13 16 20 24 22 20 18 18 17 17 17 18 18 17 16 16 15 15 15 14 15 15 16 19 22 24 27 32 37 38 38 36 36 37 37 35 33 33 32 32 33 33 33 34 36 37 37 38 38 38 39 39 40 40 40 39 41 42 42 42 42 42 43 43 43 43 44 46 48 49 51 51 51 51 52 52 53 53 53 54 54 55 55 56 56 56 56 56 56 56 56 56 56
13 13 13 12 12 11 11 11 12 12 13 14 15 18 18 18 17 17 17 17 18 18 19 18 17 16 16 15 15 14 15 15 17 19 22 24 29 35 39 40 40 40 39 38 36 34 32 31 31 32 32 32 33 34 36 37 38 38 38 38 39 40 40 40 40 41 44 45 44 44 43 43 43 42 42 42 42 43 45 47 48 50 50 50 51 51 51 52 52 52 53 54 54 55 55 55 55 56 56 56 56 56 56
13 13 13 13 13 12 12 12 12 12 13 13 13 14 16 16 15 17 18 18 18 19 19 18 17 17 16 15 15 14 15 16 18 20 23 25 29 35 36 37 38 39 38 37 36 35 33 33 33 33 33 33 33 35 35 35 36 37 38 38 38 39 39 39 39 41 44 46 46 44 42 42 41 41 40 41 42 42 44 45 47 48 48 49 50 51 51 51 51 52 52 53 53 53 54 54 55 55 55 55 55 55 55
13 13 13 13 12 12 12 12 12 13 13 14 14 15 15 16 17 17 18 18 19 19 19 18 17 16 15 15 14 14 14 15 17 20 24 26 27 29 31 34 37 37 35 36 36 36 35 34 33 33 33 34 35 36 35 34 34 34 35 35 35 36 37 37 38 41 43 43 43 42 41 40 40 40 41 42 43 44 45 46 47 47 48 49 50 50 51 51 51 51 51 52 52 52 53 53 54 54 54 54 54 54 54
12 12 12 12 11 11 11 12 13 14 14 14 15 15 16 17 17 18 18 19 19 20 20 19 17 16 15 15 14 14 14 14 15 16 20 21 21 22 23 26 29 29 28 28 29 30 32 32 33 33 35 36 35 36 34 33 33 34 35 35 35 35 36 37 38 40 41 42 42 42 42 41 41 41 41 42 43 44 44 45 46 47 47 48 49 49 50 50 51 51 51 51 51 51 51 52 52 53 53 53 53 53 53
12 11 11 11 11 11 11 11 12 11 12 12 13 14 15 15 17 18 18 18 18 19 19 18 17 16 15 15 15 14 13 14 15 17 18 18 18 19 19 21 22 22 21 21 22 23 25 28 31 32 33 33 32 32 33 33 33 34 36 35 35 35 35 36 38 39 41 42 42 42 43 43 43 42 42 42 43 43 44 45 46 46 47 47 48 49 50 50 50 50 51 51 51 50 51 51 51 51 52 52 52 52 52
12 11 11 11 11 11 11 11 12 13 13 13 14 14 15 16 17 18 18 17 16 18 17 17 17 17 16 15 15 14 14 14 15 15 15 16 17 19 19 20 21 21 21 21 22 23 24 27 29 29 30 30 31 31 33 33 33 34 36 36 35 34 35 37 38 38 39 41 42 42 43 42 42 42 41 42 42 43 43 42 42 42 42 44 46 47 48 49 49 50 50 50 50 50 50 50 50 51 51 51 51 51 51
11 11 11 11 11 11 11 13 14 15 15 14 15 15 16 17 17 17 17 17 17 18 17 17 17 17 16 16 15 15 15 15 14 15 15 15 17 18 19 19 20 20 20 20 21 22 24 25 26 27 29 29 29 29 30 31 31 32 33 34 34 35 37 38 38 39 39 40 41 41 41 41 41 41 41 41 41 41 41 41 41 40 40 41 43 46 47 48 49 49 49 49 49 49 49 49 49 50 50 51 51 50 50
10 10 10 10 10 11 11 13 15 16 15 14 14 15 15 16 17 17 16 17 17 17 17 17 17 17 17 16 16 15 15 15 15 14 15 15 16 17 18 18 18 19 19 20 20 21 23 23 23 25 26 26 27 27 28 29 30 30 31 32 33 34 35 36 37 37 37 38 38 38 38 38 38 38 38 38 39 39 39 39 39 38 38 39 40 42 46 47 48 48 48 48 48 48 48 48 48 49 50 50 50 49 49
9 10 10 10 10 11 12 13 15 15 15 14 14 13 14 15 15 15 15 16 16 16 16 17 17 17 17 17 16 16 16 15 15 15 15 15 16 17 18 18 18 19 19 20 20 21 22 22 23 23 24 24 24 26 27 28 29 29 30 31 32 33 33 33 33 34 34 35 35 36 36 36 36 36 36 36 37 38 38 38 38 38 38 38 39 40 43 46 47 47 47 47 47 47 47 47 47 48 49 49 49 48 48
9 9 10 11 11 13 14 15 15 15 15 14 13 13 14 14 15 15 15 15 16 16 16 17 17 17 17 17 17 17 17 17 16 16 16 16 17 17 17 18 19 19 19 20 20 21 21 22 22 23 23 24 24 25 26 27 28 29 30 30 31 32 32 32 32 32 33 33 33 34 34 34 35 35 35 36 37 38 38 38 38 38 38 38 38 39 42 45 47 47 47 46 46 46 46 47 47 47 48 48 48 47 47
9 10 10 11 14 16 18 19 18 16 15 14 14 14 15 15 16 17 16 15 16 16 17 17 17 18 18 18 18 18 18 18 18 18 18 18 17 17 18 18 19 19 19 20 20 20 21 22 22 23 23 24 24 25 26 28 29 29 30 31 31 32 32 32 32 32 32 33 33 33 34 34 35 35 35 36 36 37 38 40 40 40 39 39 39 40 42 44 45 47 46 46 46 46 46 46 46 47 47 47 47 46 46
10 11 11 13 15 17 17 17 16 15 15 15 15 15 16 17 17 16 16 16 16 17 17 18 18 18 18 18 18 18 19 19 19 19 19 19 18 18 19 19 19 20 19 19 20 20 21 21 22 23 24 24 25 26 27 28 29 30 31 32 33 33 33 33 33 33 32 33 33 34 34 35 35 36 36 36 36 37 38 40 41 42 41 41 40 41 42 44 45 46 46 46 45 45 45 45 45 46 46 46 46 46 46
11 11 12 14 15 15 14 12 12 12 14 15 15 15 17 17 16 16 17 17 17 17 18 18 19 18 18 18 18 18 19 19 20 20 20 20 19 18 19 19 19 19 19 19 19 20 20 21 22 23 24 25 25 26 27 29 29 30 32 33 34 35 35 34 34 33 33 33 33 34 34 35 35 35 36 36 36 37 38 39 41 42 42 42 42 41 42 43 45 46 46 46 45 45 45 45 45 45 45 45 45 45 45
12 12 12 12 12 11 11 10 10 11 11 12 13 14 16 16 16 17 18 18 18 18 19 19 19 19 18 18 18 19 19 20 20 20 20 20 19 18 18 18 18 18 18 18 19 19 20 21 22 24 24 25 26 27 28 29 30 32 33 34 35 35 36 36 36 36 35 34 34 34 35 35 35 35 36 36 36 37 38 38 40 42 42 43 42 42 42 43 44 46 46 46 45 45 44 44 44 45 45 44 44 44 44
11 11 11 11 11 11 10 10 10 10 10 11 12 13 15 16 16 17 17 18 18 19 19 19 19 19 18 18 18 19 20 20 20 20 20 20 19 19 18 18 17 17 17 18 19 20 20 21 23 24 25 26 27 29 29 30 32 33 34 34 35 36 36 37 38 38 37 36 35 35 36 36 36 36 36 36 36 37 37 38 39 41 42 43 43 43 43 43 44 45 46 46 45 45 44 44 44 44 44 44 44 43 43
9 8 9 9 9 9 10 10 11 11 11 11 12 14 15 15 16 17 18 18 19 20 20 20 20 19 19 19 19 19 20 20 20 20 20 20 19 19 18 18 17 17 18 18 19 20 20 22 23 24 26 27 29 30 31 32 33 34 35 35 36 36 36 37 38 38 38 38 37 37 37 37 37 37 37 37 37 37 38 38 39 40 42 43 44 44 43 44 44 45 46 46 45 44 44 44 44 44 43 43 43 43 42
8 8 8 8 8 9 9 10 11 12 13 14 15 15 16 17 17 18 19 19 20 20 20 20 20 20 19 19 20 20 20 20 20 20 20 19 19 19 18 18 18 18 18 19 20 20 21 22 24 25 27 29 30 32 33 34 34 35 36 36 36 37 36 37 38 38 38 38 38 38 38 38 38 38 38 38 38 38 38 38 39 39 41 42 44 44 45 45 45 45 45 45 45 44 44 43 43 43 43 43 42 42 42
9 9 8 8 9 9 10 11 13 14 15 16 17 17 18 18 18 19 19 20 20 20 20 20 21 21 21 21 20 20 20 20 20 20 20 19 19 19 19 18 18 18 19 19 20 21 23 24 25 27 28 30 32 33 34 35 36 37 37 37 37 37 38 38 39 39 39 38 38 38 38 38 38 38 38 39 39 39 39 39 39 39 41 43 44 45 45 45 45 45 45 45 44 44 43 43 43 42 42 42 42 42 41
9 9 9 9 10 11 13 14 16 17 18 18 19 19 19 19 19 19 19 20 20 20 20 22 25 27 25 23 21 21 21 20 20 20 20 19 19 19 19 19 19 19 20 20 22 23 24 26 27 29 30 32 33 34 35 36 38 38 38 38 38 38 39 39 38 38 38 38 38 38 38 38 38 37 39 40 41 41 40 39 39 39 41 43 45 45 45 45 45 45 45 44 44 43 43 42 42 42 42 41 41 41 40
10 10 10 11 12 13 15 17 18 19 19 19 19 19 19 19 19 20 20 20 20 20 20 24 29 32 26 23 21 21 21 21 20 20 20 19 19 19 19 20 20 20 21 23 24 25 26 27 28 29 31 32 33 35 36 37 38 38 38 38 38 39 39 38 38 38 38 38 38 39 38 38 39 39 40 41 41 42 41 41 41 40 42 42 43 45 45 45 45 45 44 44 43 42 42 42 42 41 41 40 40 39 39
11 11 12 13 15 16 17 18 18 18 19 19 20 20 20 20 20 21 21 21 21 21 21 25 29 31 26 23 22 22 21 20 20 19 19 20 20 20 20 21 22 23 24 25 26 27 28 29 29 30 31 32 33 33 35 36 37 38 38 38 38 38 38 38 38 38 38 38 38 39 39 39 39 39 40 40 41 42 42 42 42 42 42 42 43 45 45 45 45 44 44 43 42 42 42 42 41 41 40 40 39 38 38
12 14 15 16 17 18 18 18 18 18 20 22 22 21 21 21 21 22 23 23 23 23 23 23 24 24 23 23 22 22 21 20 20 19 20 20 20 21 22 23 24 26 27 28 29 29 29 30 30 30 30 31 31 31 33 34 36 37 37 38 38 38 38 38 38 38 38 38 38 38 38 39 39 39 39 40 41 41 42 42 42 42 42 43 44 44 43 43 43 42 43 43 42 42 42 41 41 40 40 39 38 38 38
14 15 16 18 18 19 19 19 19 20 21 23 23 23 22 22 22 23 23 23 23 23 23 23 22 22 22 22 22 21 20 19 19 20 20 21 22 23 24 25 27 28 29 29 29 29 30 30 30 30 30 30 30 30 31 32 33 36 37 37 37 38 38 38 38 38 38 38 38 38 38 38 38 38 39 39 40 40 41 42 42 42 42 43 44 44 42 42 42 42 42 41 41 42 41 41 40 39 39 38 38 38 37
15 15 16 16 17 18 19 20 20 21 22 22 21 22 22 21 22 22 22 22 22 22 21 21 21 20 20 20 21 20 19 20 21 23 23 24 25 26 27 28 29 30 30 30 30 30 30 29 29 29 29 29 29 29 30 31 32 33 35 36 37 37 37 37 38 37 37 37 37 38 38 38 38 38 39 39 40 40 40 41 41 42 42 44 44 43 42 41 41 41 41 40 40 41 41 40 39 39 38 38 38 37 37
14 14 14 15 16 18 20 21 21 21 20 21 21 22 21 20 20 20 20 20 20 19 19 19 18 17 18 20 20 19 20 23 24 26 27 27 28 29 29 30 31 31 31 31 31 31 30 29 29 29 29 29 29 29 29 30 31 32 33 34 36 37 37 37 37 36 36 36 36 37 37 38 38 38 38 39 40 40 41 42 42 42 43 43 43 42 42 41 41 41 40 40 40 39 40 39 39 38 38 38 38 37 37
12 11 12 14 16 19 20 20 20 20 20 20 20 20 19 19 19 18 18 17 17 16 16 16 16 16 17 19 20 20 25 29 32 33 32 31 29 29 29 29 30 31 31 32 32 31 31 30 29 29 29 29 29 29 29 30 31 32 32 33 34 36 36 35 35 35 35 35 35 36 36 37 37 37 38 38 39 39 40 41 42 43 43 43 43 42 41 41 41 40 40 39 39 39 40 39 39 38 38 38 38 38 37
11 11 13 14 16 18 18 19 19 19 19 19 18 18 17 17 17 16 15 15 15 15 15 15 15 16 18 19 20 22 29 33 34 34 33 31 29 29 29 29 30 30 31 32 33 33 31 30 30 30 30 30 30 30 30 30 31 31 32 32 33 33 34 34 33 34 34 34 35 35 35 36 36 37 38 38 38 39 39 40 41 42 44 44 43 42 41 41 40 40 40 39 39 39 39 39 39 38 38 38 38 38 38
12 13 15 16 17 17 18 18 18 18 17 17 16 16 16 16 15 15 14 14 14 15 15 15 16 17 18 19 21 23 29 31 32 32 32 30 30 32 32 31 30 29 30 32 33 33 32 31 30 30 30 30 30 30 29 30 30 30 30 30 31 31 32 32 33 33 33 34 34 34 35 35 36 37 37 38 38 38 38 39 40 42 43 44 43 41 41 40 40 40 39 39 38 38 38 38 39 38 38 38 38 38 38
14 15 16 17 17 17 17 17 17 17 16 15 15 14 15 15 15 15 14 14 15 15 16 17 17 18 18 20 20 21 23 24 25 27 28 30 32 32 31 30 29 29 29 29 31 31 32 31 30 29 29 29 29 29 29 29 29 29 29 30 30 31 31 32 32 33 33 33 33 34 34 35 35 36 37 37 38 38 39 39 41 42 43 43 42 40 40 40 40 40 39 39 38 38 38 38 38 38 38 38 38 38 37
15 16 17 17 17 17 16 16 16 16 15 14 14 14 14 14 14 14 15 15 16 17 17 18 18 18 19 20 20 20 21 22 23 25 26 29 30 30 29 29 29 28 29 29 29 29 30 30 29 29 29 30 30 30 30 29 29 29 29 29 29 30 31 32 32 32 33 33 33 33 34 34 35 36 36 37 37 38 39 40 41 42 43 42 40 39 39 39 39 39 39 38 38 37 38 38 38 38 38 38 38 37 37
16 17 17 17 16 16 15 15 15 15 15 15 14 14 13 13 14 15 15 16 17 17 18 18 19 19 19 20 20 20 20 20 21 21 23 24 27 29 30 31 31 31 30 29 28 27 28 28 29 30 31 32 32 32 31 30 29 29 29 29 29 29 31 31 32 32 33 33 33 34 34 35 35 36 37 37 38 38 39 40 42 42 42 41 39 39 39 39 38 38 38 38 37 37 37 38 38 37 37 37 37 36 36